Theta_e
343 345 347 348 348 347 348 347 347 347 345 345 345 345 344 344 343 342 342 341 344 347 347 347 346 347 346 345 344 343 343 342 343 343 343 344 344 344 342 342 342 343 342 342 341 342 343 342 342 340 342 345 345 346 346 346 345 346 346 346 346 347 347 347 346 346 346 345 346 346 345 345 346 346 345 344 344 345 344 345 343 340 341 342 344
343 346 347 349 348 348 347 347 347 347 346 346 345 344 343 342 341 341 341 342 347 348 346 347 347 347 346 345 344 343 342 340 342 343 348 348 345 342 341 340 342 343 343 341 341 341 341 341 341 340 342 343 345 344 344 345 345 345 345 345 345 345 346 346 346 346 346 345 345 344 345 345 345 345 345 344 343 343 342 343 343 340 340 343 343
346 346 347 348 348 349 347 347 347 347 347 347 346 343 343 342 342 342 343 343 345 347 346 346 347 347 346 345 344 343 341 341 341 345 347 345 343 341 340 339 339 339 340 342 342 342 342 341 341 339 341 341 341 343 343 344 344 344 344 344 344 344 344 344 345 345 344 345 344 344 344 344 344 344 345 345 345 345 343 342 342 342 339 343 342
344 346 347 348 348 349 347 348 347 347 347 346 345 345 344 342 342 342 343 345 348 346 346 347 347 346 345 345 344 342 342 342 340 343 347 346 343 340 339 339 339 339 338 338 340 340 339 339 340 339 339 339 340 340 341 342 342 343 343 344 344 343 344 343 343 345 345 345 343 340 339 340 341 343 345 345 345 344 342 342 341 342 342 342 342
343 346 346 348 348 348 348 347 347 347 347 346 346 346 345 345 344 342 342 344 347 347 346 347 347 346 345 344 343 342 341 340 340 339 345 346 342 341 341 340 339 339 339 339 339 339 339 339 339 339 338 339 339 338 339 340 340 341 343 342 343 343 343 344 344 344 344 343 341 339 337 338 338 340 345 345 344 341 340 341 341 341 340 341 342
344 346 346 346 347 349 348 348 348 348 348 346 345 344 344 342 342 343 343 342 346 346 346 347 346 346 345 345 344 343 342 341 340 340 341 340 338 340 342 341 340 339 339 339 338 338 338 339 339 339 339 338 339 338 339 339 340 340 342 342 342 342 342 343 344 342 341 341 340 338 338 338 338 338 341 344 342 339 341 340 341 341 341 341 341
344 346 346 346 346 347 346 348 347 347 347 345 345 345 344 344 343 343 342 342 346 346 346 346 346 346 345 344 343 343 341 341 341 341 340 340 339 339 341 341 340 341 340 340 340 341 341 341 340 340 340 339 339 339 340 339 340 340 341 341 341 341 341 342 342 342 341 339 337 337 337 338 338 338 342 342 341 340 341 342 341 341 340 341 340
345 346 346 346 346 346 345 348 347 347 347 346 345 345 344 344 343 343 343 343 344 346 347 347 347 345 345 344 344 343 342 341 340 340 339 339 339 341 341 341 341 341 342 341 340 339 338 338 338 338 338 338 339 340 340 340 340 340 341 341 340 340 341 343 341 341 339 337 337 336 337 338 337 339 340 339 341 340 342 342 341 341 340 339 337
344 345 345 345 346 345 346 347 347 347 347 346 345 345 345 344 343 343 343 343 344 346 346 346 346 345 345 345 343 342 342 341 340 339 338 340 345 345 344 343 342 342 340 340 340 340 339 339 339 339 339 339 339 339 340 340 340 340 340 340 340 340 341 341 340 339 336 336 336 336 336 336 337 337 339 340 341 341 340 339 339 340 339 337 336
343 345 345 345 348 343 345 347 347 347 347 346 346 345 345 343 343 343 343 343 344 346 345 346 345 345 345 344 343 342 341 340 339 338 337 339 343 344 344 343 342 342 342 343 342 342 342 341 341 340 339 340 340 340 340 340 340 340 340 340 340 339 340 341 338 336 335 335 336 335 336 337 336 337 339 341 340 339 337 335 336 336 335 335 336
343 344 345 346 349 343 347 348 347 347 347 346 346 345 344 344 343 343 342 342 344 345 345 345 345 344 344 343 342 341 341 339 338 338 338 338 341 344 343 343 343 342 342 343 343 342 342 341 340 340 340 339 339 339 339 339 339 339 339 339 339 340 341 339 335 333 333 334 334 335 336 338 335 335 339 339 339 338 336 335 335 335 335 335 336
342 344 345 346 346 343 346 347 347 346 346 346 344 345 344 343 343 343 342 342 343 345 344 344 344 344 344 343 342 341 339 338 337 337 337 337 340 343 343 343 343 342 342 341 341 341 340 341 340 340 339 338 338 338 339 338 338 339 338 338 338 339 338 336 335 335 335 334 334 334 336 335 335 334 338 338 338 337 335 335 335 335 334 333 333
341 343 345 346 347 340 345 346 346 346 346 346 346 345 344 343 343 343 342 342 342 345 344 344 344 344 344 342 341 340 339 338 337 336 336 337 337 337 338 338 339 340 339 340 339 339 339 340 340 339 339 338 338 337 337 337 338 338 338 338 338 338 335 335 334 334 334 334 334 336 335 335 335 336 338 337 337 336 335 335 334 334 333 332 332
341 342 344 346 346 347 342 344 345 346 346 346 346 345 344 344 344 343 342 342 341 342 343 343 343 343 342 342 341 340 339 338 337 336 336 336 335 335 337 338 339 339 339 339 339 339 339 339 339 338 338 338 337 337 337 337 337 337 337 336 336 336 333 333 334 334 333 333 333 333 333 334 333 335 335 336 335 334 333 333 332 332 332 331 330
339 343 345 345 347 347 344 340 343 344 345 346 346 345 344 344 343 343 342 342 342 341 341 341 342 342 341 340 340 339 338 338 337 336 336 335 335 337 338 339 339 339 338 338 338 338 338 338 338 337 337 337 337 336 336 336 336 335 335 334 334 333 331 333 333 333 333 332 332 332 333 333 335 335 335 333 333 333 332 332 331 330 329 329 329
342 342 345 344 346 347 347 344 339 341 341 343 344 345 345 344 343 343 341 341 341 341 340 340 341 341 340 340 339 337 338 337 337 336 336 338 336 337 339 339 339 338 337 338 338 337 338 338 337 337 337 336 336 336 336 335 334 333 333 333 332 331 329 330 333 332 331 331 331 331 330 331 332 333 333 333 332 331 331 330 329 329 329 329 329
342 343 343 344 345 345 345 346 342 335 336 339 340 341 343 344 343 342 342 342 341 341 340 340 341 340 342 342 342 341 341 339 340 339 339 338 339 340 340 337 338 339 338 338 337 337 337 336 336 336 336 337 336 336 335 334 333 332 332 333 330 329 327 328 331 331 329 329 328 327 328 329 330 330 330 330 329 329 328 327 327 327 326 327 326
342 342 341 342 344 345 345 345 346 346 346 340 335 337 340 342 342 342 342 342 342 341 341 341 341 340 338 338 338 338 339 339 340 340 339 338 337 338 340 339 338 337 337 336 336 336 336 336 336 336 336 336 336 335 334 333 331 331 331 330 329 328 327 326 330 329 329 330 328 328 327 330 329 329 329 328 328 328 327 327 327 326 326 326 325
340 339 340 341 341 343 344 344 345 345 345 345 345 344 335 337 339 339 339 340 340 338 338 337 336 335 334 333 333 332 331 332 334 335 336 335 334 332 335 338 337 336 336 336 336 336 336 335 336 336 336 335 335 334 333 331 330 329 329 328 327 325 323 325 327 327 327 325 326 327 327 331 328 328 328 327 326 326 326 325 325 324 324 324 323
340 340 339 341 341 342 343 344 344 343 345 345 344 345 335 333 336 337 337 336 335 335 333 332 328 328 328 329 329 333 331 334 329 334 330 331 329 331 331 337 337 335 335 336 336 335 335 335 335 335 335 334 333 332 331 330 329 329 328 327 326 320 331 330 330 328 326 325 325 326 330 329 327 329 327 327 326 325 325 325 324 323 322 322 323
338 340 340 340 342 341 342 344 343 344 344 344 346 344 342 332 332 329 330 331 332 331 328 324 323 322 326 325 328 333 334 334 338 335 328 335 322 324 330 335 337 336 335 335 335 334 334 334 334 334 333 331 328 327 327 329 329 329 326 326 320 334 330 329 328 327 326 326 325 326 330 330 328 328 327 326 326 325 324 323 323 322 322 322 322
336 338 340 340 341 341 343 343 343 343 344 344 344 343 344 338 342 341 341 335 329 327 334 338 335 337 326 332 335 333 331 333 333 334 334 333 332 322 326 331 335 335 334 334 334 333 333 334 333 332 330 328 326 331 327 323 324 326 325 321 334 330 330 329 328 327 327 326 325 327 332 327 327 327 327 326 325 324 323 322 322 322 321 321 321
334 336 338 339 341 341 341 341 342 343 344 344 344 344 344 343 343 341 340 333 336 338 338 336 336 336 334 335 333 333 333 333 334 335 334 322 328 322 325 328 331 331 331 332 332 332 332 332 331 329 329 328 332 333 331 330 329 321 320 331 330 330 329 330 328 328 327 326 325 326 329 326 326 327 326 326 324 323 322 322 322 321 321 320 320
333 335 336 339 340 339 341 341 342 343 342 342 343 343 344 343 341 341 340 338 338 337 337 336 335 335 336 335 332 334 333 334 327 327 330 334 330 321 321 323 325 326 326 329 327 327 328 326 327 326 327 328 331 330 331 332 329 328 330 330 330 330 330 329 329 329 327 326 325 326 329 327 326 325 325 324 324 323 323 322 321 321 320 320 319
334 335 335 336 337 339 340 341 342 343 343 341 341 340 341 341 342 341 340 338 338 337 336 336 336 336 335 334 334 334 334 332 333 332 331 331 331 332 332 332 332 332 325 331 329 329 328 329 327 325 330 330 330 330 330 330 330 330 330 329 329 329 329 329 329 327 327 326 326 323 327 327 325 326 325 324 323 322 321 321 320 320 319 319 319
336 334 334 335 337 337 339 340 341 342 342 342 340 341 341 340 340 341 340 339 338 336 336 335 335 335 335 334 334 333 333 329 331 331 332 331 330 329 329 329 331 331 330 329 328 328 327 328 329 329 328 329 329 329 329 328 328 328 328 330 329 329 329 328 328 327 327 325 325 322 325 327 325 325 325 325 323 323 322 321 321 320 319 319 319
335 334 335 335 336 338 339 340 340 340 342 341 341 341 341 341 340 340 339 337 337 336 335 334 335 335 334 334 332 332 331 331 330 331 331 331 330 329 329 329 329 329 329 327 327 327 327 326 327 328 328 328 329 329 329 329 328 328 328 328 328 328 328 328 328 327 328 325 322 320 324 328 325 325 325 324 323 322 321 321 321 320 319 319 319
335 334 335 335 336 337 338 339 339 340 340 341 340 340 340 340 340 340 339 335 336 335 335 335 335 334 334 332 331 332 331 330 330 330 329 330 330 330 330 329 328 328 328 328 327 326 326 327 328 328 327 328 328 329 329 328 328 328 328 328 328 327 327 326 327 328 328 327 324 321 321 325 327 325 325 324 323 322 322 321 320 320 320 319 319
334 335 336 335 337 337 338 338 338 339 340 340 339 339 340 340 340 340 338 335 337 336 336 335 334 334 334 334 332 331 331 331 330 329 329 328 329 330 329 328 328 328 328 327 327 326 326 326 326 326 326 326 327 327 327 327 327 327 327 327 327 327 327 326 326 326 327 326 323 321 320 323 327 326 323 324 323 323 322 321 320 319 320 320 319
335 336 336 336 337 337 337 338 339 339 340 340 339 339 339 339 340 339 338 336 336 336 336 335 334 333 333 334 333 332 331 330 330 330 328 328 329 329 327 327 327 327 327 326 326 326 325 325 325 325 325 325 325 326 326 326 326 325 326 326 326 326 326 326 325 326 326 326 324 323 317 319 324 327 324 323 323 323 322 321 320 320 319 318 320
336 335 336 336 337 337 337 338 339 339 340 339 340 339 339 339 339 340 339 337 336 336 336 334 334 333 333 333 333 333 331 331 330 330 329 328 328 327 326 326 326 326 326 326 326 325 325 324 325 324 324 324 324 325 324 324 324 325 325 325 326 325 325 325 325 325 325 325 325 323 322 316 319 322 326 324 323 323 322 321 321 320 320 319 318
334 334 336 338 337 336 336 337 338 339 339 339 339 339 339 340 340 340 339 338 337 336 335 334 331 333 333 333 333 333 331 331 331 331 329 328 326 325 325 325 324 324 325 325 324 324 324 325 325 325 325 324 323 324 324 323 323 323 324 324 325 325 324 324 324 324 324 324 325 323 321 321 316 318 321 326 323 323 322 321 321 321 320 320 319
334 335 336 337 337 337 336 337 338 339 340 338 338 339 339 340 340 340 340 339 337 336 336 334 334 333 333 333 332 333 332 331 330 330 329 328 326 325 325 325 324 324 323 324 324 324 323 323 323 323 323 323 322 322 324 323 322 322 323 323 324 323 324 324 323 323 323 324 323 323 322 321 320 316 316 319 324 323 322 321 321 321 320 320 319
333 335 336 336 337 338 338 337 337 338 339 339 338 338 338 339 339 339 339 340 338 336 334 335 334 333 332 332 332 332 331 331 331 330 330 327 326 325 324 323 324 324 323 323 322 322 322 322 321 321 319 320 320 321 320 320 321 322 322 322 323 323 323 323 322 322 323 323 323 322 322 321 320 320 321 316 318 322 324 322 321 320 321 321 320
333 334 335 336 336 337 338 336 336 337 338 338 338 337 338 338 337 338 339 339 338 336 335 335 334 334 332 331 331 331 331 331 331 330 329 327 326 325 324 323 323 323 321 321 321 321 321 321 321 320 320 319 320 320 320 320 320 320 320 321 320 322 322 321 322 322 322 322 322 321 320 320 320 320 320 319 314 315 321 323 321 320 321 321 320
333 334 335 336 335 337 337 336 336 335 337 337 338 338 337 337 337 332 338 339 337 336 335 335 334 333 332 331 331 331 331 331 330 330 329 327 325 323 323 324 323 321 321 321 320 319 320 320 321 320 318 318 319 319 320 319 320 320 320 319 320 320 318 319 321 321 321 321 320 319 319 319 319 319 317 319 318 317 316 320 323 321 321 320 321
335 335 335 336 335 336 336 336 336 335 335 335 337 337 337 336 336 336 338 339 337 336 336 334 333 332 331 331 331 331 331 331 330 329 327 326 324 323 323 324 322 320 320 320 319 319 319 319 319 319 320 318 318 318 318 318 318 318 319 318 318 317 317 319 319 319 320 317 318 318 318 318 318 311 317 318 318 317 315 315 317 321 321 322 320
335 335 336 336 335 336 336 336 337 336 335 335 335 336 336 336 335 335 334 337 338 338 337 335 333 332 332 331 331 331 329 329 328 328 327 326 325 324 323 323 321 320 320 319 318 319 318 318 317 318 318 318 317 317 317 317 317 317 317 316 315 314 315 317 316 313 314 315 316 315 315 316 316 315 315 316 317 317 317 314 314 315 313 316 322
333 334 335 336 336 336 336 336 336 336 336 336 335 334 334 334 335 334 335 335 336 337 337 335 333 332 331 332 332 331 330 330 329 327 326 325 324 323 322 321 320 320 319 318 317 317 317 318 317 316 318 318 317 317 317 317 317 315 314 314 314 314 314 313 311 311 312 312 313 314 314 312 312 313 313 313 314 315 317 317 316 315 315 313 317
330 331 331 333 335 335 336 336 335 336 336 336 335 334 334 332 331 331 331 334 335 335 336 335 334 333 333 333 333 333 332 330 330 329 327 325 324 323 322 322 320 319 318 316 316 316 316 316 316 316 316 316 317 317 317 316 315 313 312 313 313 311 309 308 307 307 308 308 309 309 308 308 307 308 308 309 311 312 314 316 316 315 315 314 313
327 328 329 331 332 333 334 334 335 335 334 334 333 333 331 331 332 331 330 330 332 334 335 336 335 334 333 333 333 332 333 332 330 330 327 324 325 325 323 322 320 318 317 317 317 317 316 316 315 316 315 314 314 315 315 315 312 310 311 310 309 309 307 305 305 305 305 305 306 305 305 305 305 305 305 306 307 308 310 312 314 315 315 314 313
324 325 326 328 330 332 332 334 335 334 333 333 333 332 332 331 330 330 331 331 330 329 331 334 335 336 335 334 333 333 333 333 330 330 327 326 325 325 324 321 318 317 317 317 317 314 316 315 315 314 315 313 312 313 313 311 309 308 308 308 307 308 304 302 301 303 303 302 303 303 303 303 304 305 305 304 304 305 307 309 311 312 313 314 314
324 324 325 326 328 330 331 332 334 333 333 333 333 332 333 334 333 332 332 332 334 334 333 333 335 335 335 334 333 333 333 332 329 328 326 326 325 325 323 321 318 316 314 314 315 315 315 314 314 313 311 312 312 315 313 311 308 309 310 306 305 305 306 301 303 303 303 302 301 301 302 303 302 303 304 303 302 302 303 305 306 308 310 312 313
316 321 324 325 326 328 329 331 332 332 332 333 332 334 334 335 334 334 334 333 332 334 334 334 334 335 334 334 332 330 329 328 329 327 326 327 326 325 324 321 318 317 315 314 315 314 314 313 313 312 312 309 310 311 313 310 309 309 304 305 304 302 301 306 307 307 305 303 303 302 303 303 302 302 302 302 302 302 302 303 304 305 307 308 310
314 316 321 324 325 326 328 329 330 331 333 332 332 333 333 333 333 333 333 332 334 334 333 332 332 332 333 333 332 331 330 329 330 330 329 328 327 325 324 323 322 320 318 316 315 315 315 314 313 311 311 310 310 310 307 308 308 311 310 303 301 299 301 306 307 308 306 302 303 304 304 304 302 301 302 302 303 302 302 302 302 303 303 304 306
312 314 319 322 324 326 327 328 329 331 331 332 332 331 331 330 329 327 326 326 326 327 326 327 330 330 330 332 334 333 332 332 332 332 332 327 327 326 325 324 323 321 317 317 316 315 314 313 312 311 310 311 311 309 306 305 306 308 312 312 312 308 307 307 306 303 305 306 306 305 305 305 304 303 303 303 303 303 302 301 302 301 301 302 303
311 313 315 319 322 324 327 327 328 329 331 331 331 330 330 330 329 327 327 326 324 326 328 329 329 329 330 330 331 333 333 333 333 331 329 327 327 327 326 324 322 319 317 315 314 314 314 313 312 311 311 311 310 307 308 307 304 305 307 309 309 305 304 304 303 304 301 304 304 306 305 305 304 303 302 303 302 303 303 302 301 302 301 301 301
310 311 312 314 318 321 324 326 327 327 329 330 330 330 328 328 328 328 327 327 327 326 327 328 330 330 329 330 332 333 333 332 332 330 329 328 327 327 326 324 322 321 318 314 314 314 312 312 312 311 311 310 309 308 308 310 303 304 304 305 305 306 305 302 300 300 299 296 301 303 303 304 304 303 302 302 303 302 303 303 302 302 302 301 301
310 310 310 312 314 318 320 323 325 326 327 328 329 329 327 327 327 327 326 326 327 328 328 328 328 330 330 331 332 333 332 332 332 331 330 329 327 327 326 323 321 320 316 316 315 314 313 312 311 310 309 309 309 309 309 308 308 306 305 302 302 303 304 304 302 299 296 296 298 300 303 303 301 302 302 302 302 303 303 302 303 303 302 301 301
309 310 310 311 312 314 316 320 322 324 326 326 327 328 327 326 326 326 325 325 325 326 327 327 327 328 328 331 331 331 332 330 330 331 331 330 328 326 325 324 322 321 317 318 315 313 313 312 312 311 310 309 309 308 308 308 309 309 308 307 302 302 302 302 302 301 300 299 297 299 302 303 302 303 300 300 299 300 301 302 302 302 302 301 301
310 309 311 311 312 313 315 318 319 322 324 325 325 325 325 325 325 326 325 324 324 325 325 325 326 326 325 326 327 328 329 329 330 330 331 331 330 327 325 325 326 323 319 317 315 313 312 313 313 313 311 309 309 309 307 307 308 308 307 306 306 306 304 303 303 303 302 299 298 298 300 302 301 302 304 300 300 300 300 300 300 301 302 301 301
Wind_Speed
9 12 10 10 9 10 11 11 12 11 11 10 10 10 10 9 9 9 9 7 11 13 13 12 12 13 13 13 13 14 14 14 14 13 14 15 16 16 15 14 15 15 16 15 15 15 16 15 15 13 12 16 17 18 19 19 19 18 18 18 18 19 19 19 18 17 18 19 20 19 19 18 19 19 19 19 17 14 11 14 15 14 13 15 20
11 11 10 10 8 11 11 12 12 12 11 11 10 10 10 10 9 8 8 7 13 13 12 12 12 13 13 13 13 14 13 12 14 14 17 16 17 16 14 13 16 16 15 16 15 16 16 16 16 15 14 15 17 16 17 18 18 17 17 17 17 17 17 16 17 17 17 17 19 19 19 19 18 18 18 18 17 17 15 15 17 14 11 20 20
10 11 11 11 8 9 11 11 11 11 11 11 11 10 9 9 8 8 9 8 10 12 12 12 11 13 13 13 14 13 13 13 13 15 16 16 16 15 14 14 15 15 16 16 16 16 17 16 16 16 15 14 15 15 16 17 16 17 17 17 16 15 14 13 12 14 17 18 19 19 17 20 19 19 19 20 20 19 15 17 18 15 13 20 19
12 11 11 9 6 9 12 11 11 11 11 11 10 10 9 9 9 7 7 10 13 11 12 12 11 12 13 14 14 13 12 13 12 14 16 16 16 16 15 14 15 14 14 15 16 16 16 16 16 16 16 16 15 14 16 16 16 17 17 16 15 14 12 11 9 6 7 9 11 12 11 12 14 19 20 20 20 20 18 20 20 20 20 20 21
11 11 11 10 11 11 11 12 12 11 11 11 11 10 10 9 8 7 7 10 11 11 11 11 11 13 13 13 13 13 13 13 13 13 13 14 14 15 15 14 14 15 15 15 15 15 15 16 16 16 16 16 15 16 15 15 16 16 16 15 14 13 12 10 9 8 6 6 10 13 12 13 12 17 20 21 20 18 18 20 20 20 21 22 22
11 10 11 10 11 11 10 11 12 11 11 11 11 11 10 9 9 8 7 7 12 11 11 11 11 13 13 13 13 12 12 13 11 12 14 13 12 13 14 14 14 14 14 15 15 15 15 15 16 16 16 16 15 16 16 16 16 16 15 15 14 13 12 11 9 9 14 15 14 9 12 12 11 11 18 20 19 18 19 20 20 19 20 22 21
12 10 10 10 9 10 9 11 11 11 11 11 11 10 10 9 8 8 8 8 12 11 11 11 11 13 13 13 13 12 12 11 12 12 12 12 11 11 13 13 13 14 14 15 15 15 15 15 15 15 16 16 16 15 16 16 16 16 15 14 13 11 10 9 8 8 8 10 9 10 10 12 11 8 17 18 19 18 19 20 20 20 20 20 20
9 8 9 10 9 11 9 10 11 11 11 11 10 10 9 8 8 7 8 7 10 11 11 11 11 11 13 13 12 12 12 11 11 11 12 11 11 11 12 12 13 14 14 14 14 14 14 15 15 15 15 15 15 15 16 16 16 16 13 13 13 11 11 9 10 11 12 10 10 10 9 10 11 9 17 18 20 20 21 21 20 20 20 20 16
9 10 9 9 11 12 9 10 11 11 11 11 10 10 9 8 8 8 7 7 10 12 11 11 10 10 12 13 13 12 11 11 11 11 9 11 14 14 13 13 13 14 14 14 14 14 14 14 14 14 15 15 15 15 15 16 16 14 14 13 12 11 8 5 4 10 10 10 11 10 11 12 11 10 16 19 22 21 19 17 18 20 20 18 19
9 9 9 9 11 12 9 10 11 11 11 11 10 9 9 8 7 7 7 8 11 12 11 11 11 10 12 13 13 11 11 11 11 10 9 11 13 12 13 13 12 13 13 14 14 14 14 14 14 14 15 15 15 15 15 15 15 13 13 12 11 10 9 7 11 12 10 11 12 13 12 13 12 11 17 21 22 23 21 18 15 14 15 20 21
9 9 9 10 13 11 9 10 10 11 11 10 10 10 9 8 7 7 8 8 10 11 11 11 11 11 12 12 11 11 11 10 9 9 9 10 11 13 13 12 12 12 13 14 14 14 14 14 14 14 14 14 14 14 14 15 14 13 13 12 12 12 11 8 11 10 10 11 12 11 13 14 11 10 17 19 21 21 18 18 16 17 19 19 19
9 8 9 10 12 10 8 10 10 11 10 10 10 9 8 8 7 7 7 7 9 11 11 11 11 10 11 11 11 11 10 10 9 9 8 9 10 12 13 13 12 13 12 13 14 13 13 14 14 14 14 14 14 14 14 14 13 13 12 12 12 11 11 13 10 9 10 12 12 12 11 11 12 12 17 18 19 19 17 17 18 18 16 16 16
9 8 9 11 10 9 9 9 9 10 10 10 10 10 9 8 7 7 7 7 8 11 10 10 10 11 11 10 10 10 10 9 9 9 8 9 9 9 10 10 11 11 12 12 12 12 12 13 13 13 13 13 14 13 14 14 12 12 11 10 10 11 11 10 10 10 10 11 9 10 11 10 11 14 15 16 16 17 16 14 16 17 17 17 16
9 9 9 10 9 8 8 7 8 9 9 10 10 10 9 9 8 7 7 8 8 9 10 11 11 10 10 9 9 9 9 9 9 9 9 8 8 9 9 10 10 11 11 11 11 11 11 11 12 12 12 13 12 12 13 13 11 10 10 10 10 9 6 9 10 9 10 10 10 10 10 9 10 14 14 14 14 14 14 14 14 15 15 14 14
9 9 8 9 10 10 8 7 7 7 8 9 8 8 9 9 8 8 7 7 8 7 8 10 10 10 9 8 8 8 7 8 8 8 8 7 6 9 10 10 10 10 10 10 10 10 10 11 11 11 11 11 12 12 12 12 10 10 9 9 8 7 8 8 7 8 9 9 9 10 9 9 14 15 16 15 13 14 14 13 14 13 12 12 13
9 9 8 8 10 10 9 7 6 7 7 8 8 7 7 9 8 8 8 7 7 7 7 9 9 8 8 8 7 6 7 7 8 8 8 5 7 8 11 9 9 9 10 10 10 10 10 11 11 10 10 11 11 11 11 10 10 9 8 8 9 10 9 5 6 7 6 6 7 8 8 7 10 12 13 14 13 12 12 13 14 13 13 13 14
10 8 8 8 9 10 9 9 8 7 7 8 7 6 7 7 8 8 7 7 7 7 6 6 6 7 7 7 7 7 6 7 8 7 7 6 9 6 6 10 11 10 11 11 10 10 10 10 9 9 10 10 10 10 10 10 10 9 9 8 10 9 8 3 6 7 6 6 6 6 6 6 10 11 12 13 12 12 12 12 12 12 12 13 14
10 8 9 8 8 9 9 10 10 9 9 7 7 7 7 7 8 7 6 7 7 6 6 6 8 9 8 8 8 9 10 9 7 6 8 8 8 9 9 10 10 10 10 9 10 10 10 9 9 9 10 10 10 9 9 10 9 8 7 8 8 9 11 10 6 5 7 7 7 6 7 8 10 11 12 12 12 11 11 12 11 12 12 12 12
9 10 10 9 9 8 8 9 10 9 10 8 8 8 8 8 8 7 7 7 7 7 7 8 8 9 9 8 9 10 10 9 8 7 8 7 6 8 8 7 9 9 9 9 9 9 9 9 9 10 10 10 10 9 8 9 8 7 6 6 5 5 4 4 6 5 6 6 6 6 7 9 10 11 11 11 11 11 11 11 11 11 11 10 10
8 9 9 9 8 9 8 8 9 9 9 8 8 9 8 9 8 7 8 8 8 8 9 9 8 8 8 8 8 8 8 8 8 7 7 8 8 8 7 7 7 8 9 9 8 8 8 8 9 9 10 9 9 9 9 8 8 6 4 3 1 6 1 4 5 7 6 6 6 6 5 7 10 10 11 11 11 11 11 10 10 9 9 10 11
7 9 9 9 9 9 9 7 8 8 8 8 8 8 8 9 8 8 8 8 8 9 9 9 8 7 7 7 6 5 5 5 6 6 6 6 8 9 9 9 9 9 8 8 8 7 7 7 8 8 8 10 9 9 9 7 6 4 2 3 7 3 4 4 4 5 5 5 6 5 5 6 8 9 10 10 10 10 10 10 9 9 9 9 9
9 9 10 9 9 8 9 8 7 8 7 7 6 7 8 9 8 7 7 6 6 8 7 6 6 5 5 6 5 4 4 5 5 6 5 6 7 8 9 9 9 8 7 7 7 7 6 7 7 7 8 9 7 5 5 5 5 3 3 6 5 4 2 3 3 4 4 4 6 4 4 7 8 9 10 10 10 9 8 8 10 10 9 8 9
10 9 9 11 9 9 9 10 8 8 8 7 6 6 9 8 9 8 6 7 7 7 6 6 5 5 6 5 3 4 4 4 4 5 6 11 9 9 9 9 10 11 11 11 9 8 7 6 6 5 7 6 5 4 4 3 2 2 6 5 1 2 3 3 3 4 4 4 5 4 5 7 7 9 9 9 9 9 9 9 9 9 9 9 9
12 10 10 9 10 9 10 10 9 9 8 6 6 6 7 7 7 7 7 6 6 6 5 5 5 5 5 4 2 4 3 5 8 10 9 6 6 9 10 11 10 10 11 7 8 8 8 7 2 2 4 5 3 3 4 4 4 4 3 1 1 2 1 2 1 2 4 5 4 4 5 8 8 8 9 9 9 9 9 9 9 9 9 8 8
9 10 10 10 11 11 10 10 9 9 9 7 6 6 6 6 6 7 6 6 6 6 5 5 4 4 4 4 2 4 3 4 5 5 4 4 5 5 5 4 4 5 5 3 3 3 3 3 3 5 6 3 1 3 3 3 4 4 3 1 1 2 2 1 1 2 3 4 5 0 4 7 8 9 9 10 10 9 9 9 9 8 8 7 8
9 9 10 11 12 12 11 10 10 10 10 8 8 6 6 6 7 7 6 6 6 6 6 5 5 5 5 3 3 4 3 4 5 5 4 4 5 4 4 4 4 4 5 2 2 4 3 4 5 5 2 3 2 2 3 3 3 3 3 2 2 2 2 1 1 1 2 4 4 1 2 7 7 8 9 9 10 10 9 9 9 8 7 8 8
9 10 10 9 11 12 11 10 10 10 11 9 8 7 7 7 7 6 7 7 6 6 6 5 5 6 6 5 4 4 4 4 5 4 4 4 4 4 4 3 4 4 5 3 3 2 3 3 4 3 2 1 2 1 3 3 3 3 2 2 2 2 2 2 1 2 1 3 5 3 3 5 6 7 9 9 9 9 9 8 8 7 7 7 7
9 10 10 9 10 12 12 12 11 10 10 10 9 8 7 8 7 6 6 6 6 6 6 6 5 5 6 5 5 5 4 4 4 5 4 4 4 3 3 3 4 4 4 3 2 3 4 3 3 2 2 2 2 3 3 3 3 3 3 3 3 3 3 3 2 1 1 2 5 3 4 4 4 8 9 9 9 9 9 8 8 7 8 7 7
11 11 10 11 11 11 12 13 12 12 10 10 10 9 8 8 8 7 8 6 5 6 6 6 5 5 6 6 6 5 5 4 5 5 5 4 4 4 3 3 3 3 3 3 4 4 4 3 3 3 3 3 3 3 3 4 4 4 3 4 4 4 3 3 3 3 2 3 4 6 5 6 3 6 8 9 9 10 9 9 8 7 7 8 8
11 11 11 10 11 13 14 13 13 12 11 10 9 9 8 8 8 8 7 7 7 7 6 5 6 6 6 7 7 6 5 5 5 5 5 5 4 4 4 3 3 3 4 4 4 4 4 3 4 3 3 3 3 4 3 4 5 5 5 5 5 5 3 3 3 3 4 3 4 7 9 5 6 8 9 8 8 9 10 9 8 9 8 6 9
11 11 11 10 10 13 13 14 13 11 11 11 10 9 9 9 9 8 7 8 8 8 7 5 6 7 7 7 7 7 6 5 5 5 5 5 5 4 4 4 4 3 3 4 3 4 3 4 4 4 4 4 4 3 4 4 4 4 4 5 5 5 4 4 4 4 4 3 3 4 6 4 5 6 6 9 10 10 11 11 10 9 9 8 7
12 12 10 10 11 13 14 14 14 11 11 12 10 10 10 9 9 9 8 9 9 8 7 7 7 7 7 7 8 7 7 6 6 6 5 5 5 5 4 4 4 3 3 3 3 4 3 3 2 3 3 3 4 3 4 4 4 5 5 6 6 6 5 4 4 4 5 4 4 4 5 5 4 6 8 8 10 11 10 10 10 11 10 11 10
10 11 11 11 12 13 13 14 14 13 13 13 11 10 10 9 9 9 9 8 9 7 9 8 7 7 7 7 8 8 7 6 6 7 6 5 5 5 5 4 4 4 4 3 3 3 3 3 3 2 3 3 4 4 4 4 5 5 6 6 6 6 5 4 5 5 5 5 5 4 5 7 7 5 8 8 9 12 12 11 11 12 12 13 10
9 9 12 12 10 8 9 10 13 15 14 13 11 10 11 10 8 9 9 10 8 9 9 8 7 7 6 7 8 8 8 7 7 7 7 6 5 5 5 5 4 4 4 4 4 4 4 5 4 4 5 5 5 5 4 5 5 5 4 5 6 7 7 7 6 6 5 4 5 7 6 5 6 6 5 7 8 8 11 12 13 13 13 14 13
9 10 13 14 13 10 9 9 12 14 13 13 12 11 10 10 10 10 9 9 7 6 8 9 8 7 8 8 9 8 8 8 8 7 8 7 6 6 6 5 5 5 4 5 5 5 5 5 5 5 5 5 6 5 5 5 6 6 5 5 6 6 6 7 7 7 7 6 7 5 5 4 5 5 6 6 8 9 10 11 14 13 14 14 14
13 12 12 12 13 12 12 11 12 15 15 14 14 12 11 10 9 9 9 9 8 8 6 7 8 9 8 8 9 9 9 9 9 8 8 6 6 6 6 5 6 5 5 5 5 5 5 5 6 6 6 6 6 6 5 6 6 6 5 5 5 5 5 6 6 6 5 6 6 6 5 5 5 5 5 6 7 9 11 10 9 13 15 15 15
13 12 12 13 14 14 13 13 14 14 14 15 14 12 11 11 11 10 10 10 10 9 9 7 6 8 8 7 8 8 9 10 9 9 7 6 6 5 5 6 7 6 5 5 6 6 6 5 6 7 7 6 6 7 6 6 6 6 6 6 5 4 5 5 6 5 4 4 5 5 5 5 4 1 2 4 6 6 12 14 9 9 13 14 16
12 12 12 13 14 13 13 12 11 13 12 12 13 12 11 11 10 10 9 10 10 9 7 6 8 6 7 8 9 9 8 9 10 9 7 7 7 7 6 6 6 6 6 6 6 6 6 7 7 7 7 7 7 7 8 7 6 5 6 6 5 4 4 5 4 3 3 5 5 4 5 4 4 4 4 5 5 5 4 11 13 10 11 10 15
10 13 12 11 11 11 11 12 12 12 12 11 11 12 12 11 10 10 10 11 10 10 10 8 7 7 7 8 9 9 9 11 10 10 8 7 7 6 6 7 6 6 6 6 6 7 7 7 8 7 7 8 7 6 7 6 6 5 5 6 5 5 4 3 2 3 4 4 4 4 1 2 1 1 3 4 4 4 4 4 7 7 8 12 11
10 11 12 12 12 11 11 11 12 12 11 11 10 10 10 10 10 10 10 9 10 9 10 11 9 9 9 10 10 10 10 10 11 10 9 8 7 7 8 7 7 7 7 7 7 7 8 8 8 8 7 7 7 6 5 6 5 6 6 5 5 4 4 3 3 4 4 4 4 3 3 2 2 2 4 4 4 5 5 5 5 6 7 9 12
11 11 12 13 13 12 12 13 12 12 11 11 11 11 11 10 10 11 10 10 10 10 10 9 8 9 12 9 9 9 11 10 10 10 9 9 8 8 8 8 8 8 7 8 9 8 8 8 7 7 8 7 6 6 4 3 4 5 5 5 5 5 5 4 6 6 6 5 4 4 3 3 4 5 6 4 5 5 6 6 6 5 6 6 9
12 13 13 14 14 14 14 13 11 12 12 12 10 11 11 11 11 11 10 9 9 10 10 11 10 7 9 12 12 12 12 11 11 10 9 8 8 8 9 8 8 7 7 6 6 6 7 8 6 6 6 7 6 6 5 4 6 7 5 4 5 5 6 6 7 8 7 5 6 5 5 5 6 5 5 6 6 6 6 6 6 7 6 7 6
11 13 13 13 13 13 12 12 11 11 12 12 11 10 10 10 10 8 10 8 9 8 8 9 9 10 7 6 9 10 12 9 8 7 6 8 9 9 8 8 8 6 5 6 7 8 8 8 8 6 4 4 6 5 8 8 6 4 1 3 5 4 3 3 8 11 10 9 8 9 9 8 8 5 5 4 5 7 7 6 7 8 9 8 7
9 10 12 13 11 11 12 12 11 12 11 12 10 10 10 9 8 7 8 9 7 9 9 8 9 10 11 11 7 5 7 8 7 8 7 9 10 9 8 7 7 7 7 8 9 9 8 8 8 9 8 6 6 8 7 7 7 4 3 6 1 1 8 8 7 6 10 12 11 12 10 10 8 7 5 7 7 7 8 8 9 9 9 9 9
9 9 10 11 9 13 12 13 12 12 11 11 12 10 8 8 8 7 6 7 1 4 8 9 10 10 9 10 11 9 10 9 10 11 10 10 9 8 7 7 7 8 8 9 9 10 9 7 8 8 9 10 8 5 3 5 8 7 5 3 1 2 7 7 5 6 6 6 11 13 11 13 10 9 9 9 11 9 10 9 9 9 9 9 9
9 9 9 10 10 10 11 12 10 10 11 11 12 10 9 9 9 8 9 9 10 10 11 11 10 11 11 9 10 11 12 12 12 13 11 9 8 8 7 8 8 7 8 9 7 5 6 8 9 8 9 9 8 3 3 5 7 8 9 7 6 6 5 0 1 6 4 4 4 8 11 12 11 11 11 11 12 11 9 10 10 10 10 9 9
8 8 8 9 10 9 10 11 10 9 9 10 12 10 10 9 10 10 9 9 9 9 9 8 7 7 7 9 9 9 10 8 7 6 6 8 8 8 8 8 7 6 5 4 5 6 5 7 6 7 8 7 5 8 9 6 2 7 7 8 8 1 1 2 9 6 10 1 4 5 7 10 10 11 13 13 12 10 11 10 11 11 10 9 10
7 7 7 8 10 10 10 11 9 9 9 9 11 11 10 10 9 10 9 9 9 8 9 9 8 7 8 8 7 7 8 10 8 8 9 9 9 8 8 7 7 7 5 4 6 6 5 5 7 7 6 5 8 9 10 8 8 6 7 10 10 9 4 2 1 6 5 9 9 3 5 6 7 10 13 13 12 12 12 11 13 13 12 11 10
6 7 7 8 8 9 9 10 9 9 9 11 10 11 10 9 9 9 9 8 8 7 6 7 8 9 9 8 8 6 6 7 8 8 9 9 9 9 8 8 8 7 7 6 7 8 10 9 8 8 8 9 9 10 9 10 7 8 5 6 6 9 8 7 4 5 7 8 13 10 13 5 6 8 10 11 11 11 12 14 14 13 11 11 11
3 4 5 6 7 8 10 11 11 9 9 11 11 11 11 9 9 9 10 9 8 7 7 7 7 7 8 8 8 8 7 6 7 8 7 7 7 8 8 9 9 8 8 8 7 7 8 9 9 9 10 10 9 9 11 10 8 8 8 6 6 6 6 8 9 8 8 10 14 12 10 12 13 9 8 9 10 13 12 11 12 12 12 11 11
4 6 6 7 8 8 10 11 11 9 9 11 11 11 11 10 9 9 10 10 10 9 8 7 6 6 8 7 6 6 7 7 6 6 8 7 6 7 8 8 8 7 7 8 8 8 8 10 11 10 10 11 9 10 11 11 9 9 8 7 9 9 11 12 13 10 12 10 9 12 13 12 15 16 11 11 12 13 12 11 13 13 13 12 12
Wind_Direction
127 122 115 116 125 114 110 104 104 97 91 85 86 89 88 85 86 88 85 75 82 89 101 103 101 95 92 92 89 86 83 79 77 76 77 78 75 72 70 68 71 73 71 73 73 71 68 67 63 65 72 67 64 60 62 67 69 70 69 66 63 65 68 67 64 63 67 71 73 72 72 73 73 72 72 70 68 63 66 74 70 66 70 72 74
135 126 122 121 119 118 115 108 105 104 103 99 93 91 87 84 85 89 94 92 88 92 100 103 102 100 97 92 88 87 86 82 78 78 78 80 77 75 76 79 79 75 74 73 69 68 69 67 68 68 72 74 70 70 67 61 59 60 60 61 63 66 68 71 76 76 74 74 73 72 72 73 73 73 74 72 68 61 59 62 71 75 75 75 73
130 131 123 121 124 120 118 115 109 105 98 99 99 94 93 94 94 100 112 116 93 95 104 102 101 102 102 98 94 89 85 86 90 81 83 83 82 82 80 77 74 73 74 72 72 71 70 69 71 69 71 73 73 72 70 64 62 61 61 61 62 62 62 64 70 85 91 92 88 80 73 71 73 76 77 75 69 62 62 71 76 79 81 79 78
135 127 126 124 128 118 119 115 110 105 101 97 97 97 100 98 93 84 69 73 84 91 99 104 103 101 97 94 92 90 86 83 79 88 87 89 88 83 79 75 80 83 76 73 71 70 72 72 73 74 72 73 76 78 71 68 68 66 63 61 59 54 50 51 56 73 108 108 95 85 77 76 72 77 77 77 72 68 70 75 80 81 82 81 80
132 131 130 135 132 122 122 119 116 112 111 107 99 94 91 94 98 89 77 92 91 97 103 107 107 102 100 100 96 91 92 94 90 84 96 101 88 87 82 75 70 70 76 78 78 78 78 76 76 76 76 76 77 77 77 77 75 74 66 64 57 49 42 36 38 50 51 65 79 80 80 77 73 72 79 77 75 74 76 76 75 77 78 77 77
135 135 138 137 129 125 122 121 119 116 112 108 103 102 98 97 99 96 91 83 87 94 103 105 107 103 103 102 99 94 86 86 89 92 90 83 83 86 89 87 88 82 79 79 77 78 78 77 78 77 77 77 77 78 78 78 78 78 67 59 53 44 37 29 18 42 65 61 69 80 80 76 73 71 76 78 77 68 75 78 80 79 80 79 76
135 139 137 134 132 123 125 122 117 115 111 110 110 107 107 104 98 93 86 89 92 91 98 105 107 109 105 102 99 96 95 89 83 83 83 83 78 81 87 85 78 78 77 77 79 79 77 77 78 77 77 77 77 78 78 77 77 78 63 53 48 43 38 28 27 54 83 89 78 79 77 79 79 74 81 85 83 85 80 79 78 77 75 72 74
136 136 139 134 127 126 126 124 122 118 117 113 113 110 107 103 94 95 93 89 87 84 96 108 106 105 108 105 103 99 93 90 91 86 82 86 75 71 78 80 82 81 80 77 78 79 83 83 81 81 78 77 77 77 78 78 78 75 61 56 48 35 22 16 51 52 69 75 76 76 81 78 76 74 76 78 83 80 75 72 73 72 72 74 73
144 143 141 128 122 120 126 126 126 126 121 117 114 111 109 105 96 85 85 84 82 82 97 107 108 106 106 105 100 96 93 90 89 90 91 83 69 68 73 76 78 86 91 87 86 84 81 79 79 78 79 77 77 77 78 80 78 69 60 48 39 27 14 16 9 86 74 75 76 81 84 83 79 80 75 74 71 70 70 72 72 73 73 73 73
149 143 136 131 128 123 130 133 131 126 123 120 115 115 113 110 105 92 86 86 87 86 92 102 106 107 108 107 104 101 98 93 84 80 83 78 75 78 79 78 82 85 85 92 88 85 86 84 81 80 81 80 78 78 80 82 78 63 52 45 36 24 8 11 66 69 77 71 73 68 65 76 81 78 80 78 77 76 75 70 71 71 75 75 75
151 145 133 127 127 125 139 133 130 129 125 123 122 118 118 115 111 104 95 91 91 93 94 97 103 111 105 104 104 100 94 92 87 81 75 74 79 80 86 87 88 88 84 82 85 84 82 81 80 78 79 80 80 80 82 82 76 63 59 50 35 22 3 21 73 65 65 74 78 79 74 70 76 81 84 84 81 78 75 75 76 75 73 73 74
150 142 130 121 119 125 131 132 133 134 131 127 126 124 120 121 115 106 102 99 106 99 97 102 106 102 102 101 103 100 99 95 94 91 91 85 91 102 97 93 89 88 84 80 81 83 84 83 83 84 83 83 82 82 84 82 76 68 59 45 32 21 33 53 71 78 79 74 67 75 73 77 79 77 79 79 80 79 80 82 79 77 76 76 76
151 145 129 129 133 116 130 136 136 137 135 134 132 129 127 124 116 112 105 100 95 97 100 101 100 99 98 100 101 103 101 97 93 89 81 88 87 84 88 89 91 90 88 85 85 86 87 84 83 86 86 85 85 87 87 85 78 69 60 55 51 53 38 44 64 68 68 73 77 74 80 77 77 82 79 84 83 78 71 74 78 77 77 77 77
156 148 142 142 130 124 127 136 139 138 139 138 135 132 132 127 124 114 111 104 93 108 109 107 103 102 101 105 106 106 103 101 98 91 85 86 84 88 84 82 80 78 79 82 84 84 84 86 86 88 92 88 88 88 89 87 74 63 47 31 15 12 71 81 87 78 76 76 75 77 76 76 74 72 72 70 73 75 78 74 74 77 78 78 79
155 154 145 143 137 145 129 129 139 142 139 136 134 137 136 132 125 121 112 113 100 87 106 112 111 109 108 107 110 103 104 106 100 90 89 88 94 97 95 88 86 87 87 86 87 86 88 87 89 89 90 90 88 91 89 82 69 53 41 30 10 7 7 77 75 73 70 71 76 75 78 85 83 79 79 73 71 78 82 82 77 74 77 80 85
154 158 154 150 150 144 153 136 135 139 137 130 131 138 133 130 124 121 120 118 114 96 93 114 117 115 119 119 115 113 106 104 101 95 82 70 92 83 96 99 94 90 86 86 85 85 84 86 89 96 96 94 95 93 85 76 67 54 38 22 20 17 357 69 77 77 77 83 80 77 73 69 84 89 88 86 84 84 80 82 85 85 83 85 88
151 169 166 156 155 156 157 162 147 144 135 132 135 128 128 124 126 125 124 120 119 111 99 91 111 123 86 77 73 64 61 78 70 83 82 61 40 39 84 92 85 87 89 87 87 87 87 90 92 98 100 97 99 93 83 79 71 56 38 21 28 20 12 29 70 67 68 61 67 79 80 79 74 83 81 83 87 91 97 91 85 88 95 97 95
151 178 172 167 166 168 161 159 153 167 160 141 134 133 129 127 123 120 112 114 117 108 91 66 72 79 77 74 79 68 62 58 59 69 82 60 45 35 80 92 98 94 91 92 91 92 93 95 98 100 102 101 98 95 87 84 78 65 47 35 26 20 28 40 68 68 64 69 72 70 80 85 87 89 91 95 93 88 87 95 95 92 95 94 87
166 185 175 176 180 173 171 159 165 176 169 167 163 144 137 128 125 122 114 110 104 99 89 86 83 84 83 83 84 80 73 71 72 83 89 74 69 70 71 94 96 96 93 93 96 98 99 97 102 103 102 102 98 94 88 82 79 75 58 60 35 34 332 89 86 100 95 80 79 82 88 92 97 99 103 98 97 98 96 93 99 103 93 89 94
179 194 184 180 187 184 176 169 174 176 176 171 166 158 139 133 129 121 112 106 106 102 101 93 89 91 94 102 106 110 97 88 92 87 79 70 46 46 56 85 93 99 97 99 99 100 101 104 102 106 103 101 100 86 79 79 81 71 62 26 354 285 70 61 66 67 76 81 88 96 110 112 105 102 104 109 107 108 112 112 106 97 94 99 108
186 194 198 182 191 188 187 176 183 176 176 175 161 161 139 131 120 104 101 106 109 108 107 108 109 111 119 118 143 162 143 124 143 121 125 71 56 58 63 69 80 86 96 96 95 97 102 105 105 105 100 93 85 65 55 60 55 53 43 294 301 273 67 70 80 94 107 110 92 101 82 101 111 114 112 107 108 105 101 101 102 103 113 111 97
187 190 197 188 193 193 190 186 183 183 179 172 166 156 149 168 153 146 140 124 119 128 143 147 148 137 129 160 177 157 154 164 118 142 132 133 82 60 64 75 77 75 82 94 90 88 99 100 101 104 109 118 138 115 92 63 43 16 323 296 283 91 130 107 76 73 65 93 105 116 175 127 112 112 117 115 116 114 116 111 112 121 115 102 104
190 191 192 194 194 193 195 192 186 187 182 182 169 160 164 177 165 160 145 164 153 171 169 155 175 155 176 188 178 153 154 143 118 73 88 62 72 67 66 68 74 75 67 64 68 69 74 85 100 117 133 186 205 140 139 141 134 281 266 254 139 77 59 67 96 123 111 86 112 89 97 117 122 120 120 117 118 124 123 119 114 110 113 114 113
192 191 190 194 193 196 195 194 187 184 189 188 182 173 176 178 173 160 155 167 172 196 174 183 180 170 185 204 183 121 153 98 96 110 114 135 95 88 92 90 94 96 107 96 82 68 68 58 86 181 203 218 197 154 154 165 166 192 219 217 105 114 134 138 121 93 112 126 126 153 159 135 123 128 129 127 114 108 109 115 121 119 119 116 119
189 189 191 194 196 197 192 195 190 191 191 188 190 193 185 177 179 171 167 170 178 192 181 197 185 185 188 213 137 137 180 130 154 154 178 158 153 154 158 170 157 154 195 139 158 116 215 150 167 220 211 220 199 195 169 185 192 204 229 226 148 175 174 124 112 128 121 136 105 99 128 127 143 142 142 135 135 133 133 129 129 127 120 117 106
184 190 192 191 198 199 193 193 194 195 194 194 192 185 189 195 184 184 181 179 182 189 191 188 184 193 192 205 166 174 184 150 162 173 189 156 165 178 180 187 159 170 212 190 179 172 203 161 186 212 206 205 211 208 214 206 206 223 217 204 198 197 204 197 162 149 156 117 110 124 143 168 161 149 145 145 144 148 140 142 139 136 134 121 123
184 194 189 193 191 200 194 192 192 195 196 199 195 182 193 200 193 188 188 188 183 193 198 189 195 187 202 188 202 181 189 170 171 178 181 171 181 179 186 183 166 182 206 222 159 197 218 195 202 212 220 222 233 239 260 258 223 219 234 224 220 212 211 217 203 206 193 140 126 184 219 228 167 157 157 153 150 144 147 147 148 144 137 129 135
191 193 191 190 192 196 194 192 195 194 196 199 199 196 196 201 197 173 193 192 191 195 201 199 184 194 206 193 196 197 192 185 178 180 184 186 185 183 186 180 188 192 194 207 177 202 216 216 214 201 208 206 207 214 216 236 259 257 228 239 232 223 222 221 226 222 204 142 135 194 278 261 163 165 163 158 157 158 160 156 154 157 146 146 142
196 194 191 191 190 196 198 196 196 196 194 196 204 203 198 201 197 183 192 177 197 202 204 195 192 192 202 218 189 212 201 200 188 184 187 189 178 188 186 193 194 189 182 197 190 201 207 206 197 203 208 215 206 216 227 233 232 236 243 228 234 232 228 221 222 229 227 172 166 175 231 286 211 186 176 170 170 168 165 170 165 163 161 163 157
199 196 193 195 188 194 199 200 200 196 197 196 203 203 203 203 195 194 193 165 199 210 202 196 201 201 202 206 201 216 210 205 195 198 187 186 180 183 197 199 196 191 192 204 196 203 204 203 207 204 206 214 221 216 220 226 240 239 234 233 230 235 227 242 231 233 228 206 198 153 180 242 234 208 197 196 178 172 171 169 177 177 184 175 155
202 202 196 196 190 185 198 202 203 200 196 201 201 205 203 206 200 193 196 193 202 207 195 188 208 209 208 203 205 214 217 212 209 203 192 184 186 185 200 193 203 196 200 207 197 209 214 213 205 209 206 214 220 210 220 229 231 249 243 240 232 237 228 224 229 223 237 227 224 154 169 196 272 283 275 198 191 186 188 183 181 182 181 175 191
207 205 201 194 195 193 194 201 202 201 205 203 201 208 206 206 205 199 197 199 200 212 196 194 206 214 212 204 210 209 218 218 217 211 211 187 191 193 198 197 205 197 200 204 194 209 217 225 210 234 233 223 223 214 220 234 227 231 235 243 238 234 234 235 237 219 233 241 229 212 186 202 232 263 269 210 204 200 202 192 187 187 185 186 190
209 205 200 195 197 195 191 196 201 200 205 206 204 208 211 209 206 209 203 193 195 204 207 200 198 199 207 210 211 211 209 219 214 216 214 194 196 190 195 196 208 192 200 191 196 204 215 207 203 211 224 233 232 225 219 238 236 227 233 225 239 239 238 223 231 229 228 234 235 222 199 191 207 220 252 228 223 213 213 205 198 198 191 196 197
200 201 198 199 196 192 191 190 196 203 202 208 208 206 212 213 206 209 205 201 197 201 206 210 210 176 191 207 210 214 215 216 219 213 215 206 195 191 194 194 200 183 191 175 194 205 217 217 216 204 222 228 226 227 220 228 232 235 235 225 231 232 235 235 236 236 232 229 229 233 230 207 195 199 212 233 250 254 237 212 209 206 200 204 212
197 197 196 196 194 192 188 195 184 200 196 206 212 213 211 214 214 214 207 199 199 203 203 208 203 195 174 202 203 215 220 221 221 223 217 215 195 195 195 193 186 180 191 196 203 208 216 219 213 219 218 221 234 230 229 233 230 226 220 215 216 229 236 234 230 236 234 231 229 225 221 240 228 212 192 211 231 249 247 225 215 213 208 210 220
197 195 193 193 195 193 188 195 188 200 197 205 209 213 216 215 215 215 213 189 195 201 211 209 197 193 194 199 202 207 218 220 223 225 219 208 198 199 197 190 173 182 203 201 207 211 210 215 216 217 222 222 228 228 223 231 231 228 223 221 222 216 219 225 228 223 212 213 214 218 218 220 223 232 226 208 212 217 230 241 240 218 214 221 224
196 194 190 190 196 193 188 194 191 196 201 201 208 212 216 216 216 214 217 204 199 202 202 200 192 181 174 185 190 198 207 221 220 217 213 204 207 205 204 192 167 185 201 204 206 212 209 209 214 210 221 224 219 226 223 225 226 224 218 216 219 217 227 229 231 225 208 212 215 216 220 222 221 211 239 229 237 217 202 222 241 258 237 223 225
197 198 195 191 194 192 191 194 194 193 198 200 200 204 212 217 220 220 213 213 203 195 194 191 196 191 185 191 187 189 195 201 205 207 212 209 204 202 205 188 175 187 198 205 211 214 216 210 215 210 213 221 225 220 221 222 223 220 217 212 214 216 225 233 243 250 236 221 223 221 221 223 220 215 221 228 244 252 226 203 224 240 261 253 226
197 198 197 196 195 194 190 190 195 193 194 197 198 204 209 213 218 219 219 220 214 208 200 200 198 188 194 196 193 197 202 205 204 203 209 207 204 199 197 185 185 193 194 199 210 215 219 217 220 217 215 223 232 227 227 224 223 216 222 220 215 218 223 224 253 246 249 257 249 238 225 231 232 238 244 236 233 248 249 230 214 223 237 239 244
198 197 198 198 198 198 196 192 194 193 193 195 196 201 204 211 212 215 217 211 219 217 210 207 202 206 203 202 208 208 214 206 205 204 205 207 209 207 206 197 195 195 191 194 208 212 214 217 221 227 223 224 232 242 235 230 228 231 227 229 222 217 218 218 228 235 237 239 247 256 244 238 251 250 247 258 252 235 235 237 234 226 229 230 228
198 198 197 199 199 197 194 197 192 193 193 192 193 194 203 206 213 214 215 212 214 211 214 212 202 206 210 199 201 208 214 209 207 199 202 205 210 212 208 202 194 199 198 205 205 209 209 213 217 218 226 222 219 219 228 222 244 252 231 233 240 228 226 210 233 237 228 232 238 240 240 244 239 235 236 243 255 252 239 232 233 236 233 229 225
199 199 199 198 198 198 199 197 190 194 197 196 195 197 199 203 203 208 212 215 214 209 215 213 213 205 206 201 202 213 220 217 216 201 195 199 205 212 209 199 191 199 207 210 209 208 208 208 206 218 220 225 230 200 204 165 233 236 249 248 234 225 210 199 218 234 217 200 219 226 231 229 233 231 229 239 242 249 254 245 233 232 238 241 229
199 200 201 198 198 199 202 198 196 195 199 199 198 200 199 200 200 200 203 214 220 220 218 214 203 206 203 213 208 205 211 206 192 188 191 201 207 209 206 199 189 185 190 211 218 212 204 198 194 207 208 220 244 219 202 187 231 221 213 16 280 290 208 232 235 233 222 220 214 226 229 237 237 224 230 226 230 238 240 246 246 233 230 230 238
204 202 198 200 198 199 199 197 198 198 198 198 199 201 198 198 202 206 204 212 217 211 218 220 215 199 209 206 198 179 185 198 187 189 206 212 211 208 206 196 193 191 198 208 209 203 193 193 195 206 210 230 217 227 196 194 212 159 237 220 274 22 300 260 243 223 211 218 215 227 221 227 226 220 205 227 227 224 234 232 235 240 240 237 235
196 200 196 196 197 198 196 195 196 197 197 194 194 197 190 194 201 210 224 222 68 212 204 213 220 218 200 195 205 198 205 208 213 209 205 211 204 203 206 208 206 202 204 211 210 207 201 189 191 203 209 220 230 209 168 203 218 222 221 109 204 262 236 276 327 268 166 205 224 226 224 226 218 216 222 224 229 227 231 234 233 233 235 238 242
199 199 197 195 194 193 193 193 195 196 197 195 190 191 192 190 188 192 199 211 220 213 213 210 207 216 224 214 190 198 203 206 207 214 207 201 201 206 207 215 213 208 203 210 214 197 194 211 205 210 220 224 238 230 210 204 223 229 245 243 249 255 266 232 80 288 102 223 227 219 227 228 227 228 229 235 231 231 224 232 236 237 236 234 234
206 191 191 193 192 191 188 191 191 193 194 192 188 186 192 195 195 198 200 206 213 218 223 227 228 223 226 223 221 205 213 207 201 191 190 200 211 214 210 211 213 207 194 193 209 216 221 220 208 206 216 220 209 240 240 223 175 239 234 245 256 223 54 244 259 302 289 196 230 235 220 223 223 227 238 236 233 229 228 230 238 242 238 233 233
200 186 186 187 190 190 185 188 188 190 186 185 187 187 190 195 198 201 206 212 214 215 205 219 226 234 228 233 234 218 212 216 201 196 196 200 210 216 220 221 217 220 205 196 211 209 205 209 203 206 203 195 213 224 236 223 199 231 196 234 242 253 229 253 357 253 278 287 266 245 248 244 216 226 232 236 231 223 229 228 230 233 234 232 233
186 184 186 185 189 189 188 186 188 185 184 182 185 186 190 192 196 200 207 216 222 223 211 206 212 210 218 216 219 207 200 206 212 213 213 216 213 220 218 219 220 217 204 214 212 206 207 207 195 195 200 204 205 217 224 231 209 230 206 223 234 241 249 241 221 177 232 261 269 259 264 223 231 236 233 231 234 228 225 230 233 233 230 232 230
182 183 180 181 186 188 190 185 188 185 180 180 185 185 188 190 195 202 205 206 214 221 220 215 212 214 214 204 204 208 201 191 197 205 204 208 212 214 217 215 218 215 210 215 204 204 213 222 220 214 212 217 218 222 228 237 237 240 231 223 200 235 245 253 237 233 247 231 257 263 265 265 260 238 210 224 216 231 235 234 237 234 231 231 230
170 184 180 180 181 186 187 186 186 181 178 178 183 187 188 189 198 201 203 207 208 214 212 218 215 217 224 227 228 226 222 219 210 218 234 220 199 199 209 220 226 223 221 219 218 212 206 220 225 224 222 220 222 221 227 235 234 232 213 204 221 216 223 233 236 222 231 239 245 258 260 248 255 271 245 219 223 228 228 228 233 234 231 228 230